When you browse on this site, cookies collect data to enhance your experience and personalize the content and advertising you see.
Visit our Privacy Policy to learn more. By continuing to use the site, you agree to this use of cookies and data.
EN

Hourly Weather Abingdon

Today, 8 July, Wednesday

Time Temperature Precipitation Wind Pressure Humidity
00:00 +14°C° 0 mm 5 mps 755 mmHg 96%
01:00 +14°C° 0.5 mm 5 mps 755 mmHg 96%
02:00 +15°C° 0.5 mm 5 mps 755 mmHg 96%
03:00 +15°C° 0.5 mm 5 mps 754 mmHg 96%
04:00 +15°C° 0.5 mm 5 mps 754 mmHg 96%
05:00 +15°C° 0.5 mm 4 mps 754 mmHg 97%
06:00 +15°C° 0 mm 4 mps 754 mmHg 96%
07:00 +15°C° 0.7 mm 4 mps 754 mmHg 96%
08:00 +16°C° 0.7 mm 3 mps 755 mmHg 96%
09:00 +16°C° 0.7 mm 3 mps 755 mmHg 97%
10:00 +16°C° 0.2 mm 3 mps 755 mmHg 96%
11:00 +17°C° 0.2 mm 3 mps 755 mmHg 96%
12:00 +17°C° 0.2 mm 3 mps 755 mmHg 95%
13:00 +17°C° 0.1 mm 3 mps 755 mmHg 94%
14:00 +18°C° 0.1 mm 3 mps 755 mmHg 92%
15:00 +18°C° 0.1 mm 3 mps 756 mmHg 91%
16:00 +18°C° 0.2 mm 3 mps 755 mmHg 92%
17:00 +18°C° 0.2 mm 3 mps 755 mmHg 93%
18:00 +17°C° 0.2 mm 4 mps 755 mmHg 94%
19:00 +17°C° 0.3 mm 4 mps 755 mmHg 95%
20:00 +17°C° 0.3 mm 4 mps 755 mmHg 95%
21:00 +17°C° 0.3 mm 4 mps 755 mmHg 96%
22:00 +17°C° 0.2 mm 4 mps 755 mmHg 96%
23:00 +15°C° 0.2 mm 5 mps 754 mmHg 96%

Tomorrow, 9 July, Thursday

Time Temperature Precipitation Wind Pressure Humidity
00:00 +15°C° 0.2 mm 5 mps 754 mmHg 96%
01:00 +15°C° 0.5 mm 5 mps 754 mmHg 95%
02:00 +15°C° 0.5 mm 6 mps 753 mmHg 95%
03:00 +15°C° 0.5 mm 6 mps 753 mmHg 95%
04:00 +15°C° 0.1 mm 6 mps 753 mmHg 94%
05:00 +15°C° 0.1 mm 6 mps 752 mmHg 94%
06:00 +15°C° 0.1 mm 6 mps 752 mmHg 94%
07:00 +16°C° 0 mm 6 mps 752 mmHg 92%
08:00 +16°C° 0 mm 7 mps 752 mmHg 91%
09:00 +17°C° 0 mm 7 mps 753 mmHg 89%
10:00 +19°C° 0.1 mm 6 mps 753 mmHg 86%
11:00 +20°C° 0.1 mm 6 mps 753 mmHg 84%
12:00 +20°C° 0.1 mm 6 mps 753 mmHg 81%
13:00 +20°C° 0.4 mm 6 mps 753 mmHg 82%
14:00 +20°C° 0.4 mm 6 mps 753 mmHg 83%
15:00 +20°C° 0.4 mm 6 mps 753 mmHg 83%
16:00 +19°C° 0.3 mm 5 mps 753 mmHg 86%
17:00 +18°C° 0.3 mm 4 mps 753 mmHg 89%
18:00 +17°C° 0.3 mm 3 mps 752 mmHg 92%
19:00 +16°C° 0.3 mm 3 mps 753 mmHg 93%
20:00 +14°C° 0.3 mm 3 mps 753 mmHg 95%
21:00 +14°C° 0.3 mm 3 mps 754 mmHg 96%
22:00 +13°C° 0 mm 3 mps 754 mmHg 96%
23:00 +13°C° 0 mm 3 mps 754 mmHg 96%

Day after tomorrow, 10 July, Friday

Time Temperature Precipitation Wind Pressure Humidity
00:00 +12°C° 0 mm 3 mps 754 mmHg 96%
01:00 +12°C° 0 mm 3 mps 754 mmHg 96%
02:00 +11°C° 0 mm 3 mps 754 mmHg 96%
03:00 +11°C° 0 mm 3 mps 754 mmHg 96%
04:00 +11°C° 0 mm 3 mps 755 mmHg 94%
05:00 +11°C° 0 mm 4 mps 755 mmHg 93%
06:00 +11°C° 0 mm 4 mps 755 mmHg 91%
07:00 +12°C° 0 mm 5 mps 756 mmHg 84%
08:00 +13°C° 0 mm 5 mps 756 mmHg 76%
09:00 +14°C° 0 mm 6 mps 756 mmHg 69%
10:00 +15°C° 0 mm 6 mps 757 mmHg 65%
11:00 +16°C° 0 mm 6 mps 757 mmHg 62%
12:00 +17°C° 0 mm 6 mps 757 mmHg 58%
13:00 +17°C° 0.1 mm 6 mps 757 mmHg 60%
14:00 +17°C° 0.1 mm 6 mps 757 mmHg 63%
15:00 +17°C° 0.1 mm 7 mps 757 mmHg 65%
16:00 +17°C° 0.1 mm 6 mps 758 mmHg 66%
17:00 +16°C° 0.1 mm 6 mps 758 mmHg 67%
18:00 +16°C° 0.1 mm 5 mps 758 mmHg 68%
19:00 +14°C° 0 mm 4 mps 759 mmHg 72%
20:00 +13°C° 0 mm 4 mps 759 mmHg 76%
21:00 +11°C° 0 mm 3 mps 760 mmHg 80%
22:00 +10°C° 0 mm 3 mps 760 mmHg 83%
23:00 +10°C° 0 mm 3 mps 761 mmHg 86%

11 July, Saturday

Time Temperature Precipitation Wind Pressure Humidity
00:00 +9°C° 0 mm 3 mps 761 mmHg 89%
01:00 +9°C° 0 mm 3 mps 761 mmHg 90%
02:00 +8°C° 0 mm 2 mps 761 mmHg 90%
03:00 +8°C° 0 mm 2 mps 762 mmHg 91%
04:00 +9°C° 0 mm 2 mps 762 mmHg 89%
05:00 +10°C° 0 mm 3 mps 762 mmHg 87%
06:00 +11°C° 0 mm 3 mps 762 mmHg 85%
07:00 +12°C° 0 mm 3 mps 763 mmHg 80%
08:00 +14°C° 0 mm 3 mps 763 mmHg 75%
09:00 +15°C° 0 mm 4 mps 764 mmHg 70%
10:00 +17°C° 0 mm 4 mps 764 mmHg 66%
11:00 +18°C° 0 mm 4 mps 764 mmHg 63%
12:00 +19°C° 0 mm 4 mps 764 mmHg 59%
13:00 +19°C° 0.1 mm 3 mps 764 mmHg 59%
14:00 +20°C° 0.1 mm 3 mps 764 mmHg 59%
15:00 +20°C° 0.1 mm 3 mps 764 mmHg 58%
16:00 +19°C° 0 mm 3 mps 764 mmHg 61%
17:00 +19°C° 0 mm 3 mps 764 mmHg 64%
18:00 +19°C° 0 mm 2 mps 764 mmHg 67%
19:00 +17°C° 0 mm 2 mps 764 mmHg 72%
20:00 +15°C° 0 mm 1 mps 764 mmHg 78%
21:00 +14°C° 0 mm 1 mps 765 mmHg 83%
22:00 +13°C° 0 mm 1 mps 765 mmHg 85%
23:00 +12°C° 0 mm 1 mps 764 mmHg 86%

12 July, Sunday

Time Temperature Precipitation Wind Pressure Humidity
00:00 +11°C° 0 mm 1 mps 764 mmHg 88%
01:00 +11°C° 0 mm 1 mps 764 mmHg 88%
02:00 +10°C° 0 mm 0 mps 764 mmHg 88%
03:00 +9°C° 0 mm 0 mps 764 mmHg 88%
04:00 +10°C° 0 mm 0 mps 764 mmHg 86%
05:00 +11°C° 0 mm 0 mps 764 mmHg 83%
06:00 +12°C° 0 mm 0 mps 764 mmHg 81%
07:00 +14°C° 0 mm 0 mps 765 mmHg 76%
08:00 +18°C° 0 mm 1 mps 765 mmHg 71%
09:00 +19°C° 0 mm 1 mps 765 mmHg 66%
10:00 +20°C° 0 mm 1 mps 765 mmHg 61%
11:00 +21°C° 0 mm 1 mps 765 mmHg 57%
12:00 +21°C° 0 mm 2 mps 765 mmHg 52%
13:00 +21°C° 0 mm 2 mps 764 mmHg 52%
14:00 +23°C° 0 mm 2 mps 764 mmHg 51%
15:00 +23°C° 0 mm 2 mps 764 mmHg 50%
16:00 +21°C° 0 mm 2 mps 764 mmHg 56%
17:00 +21°C° 0 mm 2 mps 764 mmHg 61%
18:00 +20°C° 0 mm 2 mps 763 mmHg 66%
19:00 +18°C° 0 mm 2 mps 763 mmHg 68%
20:00 +16°C° 0 mm 2 mps 763 mmHg 71%
21:00 +15°C° 0 mm 2 mps 763 mmHg 73%
22:00 +14°C° 0 mm 2 mps 763 mmHg 74%
23:00 +13°C° 0 mm 1 mps 763 mmHg 75%

13 July, Monday

Time Temperature Precipitation Wind Pressure Humidity
00:00 +13°C° 0 mm 1 mps 763 mmHg 75%
01:00 +12°C° 0 mm 1 mps 763 mmHg 77%
02:00 +12°C° 0 mm 1 mps 762 mmHg 79%
03:00 +11°C° 0 mm 1 mps 762 mmHg 81%
04:00 +12°C° 0 mm 1 mps 762 mmHg 79%
05:00 +13°C° 0 mm 2 mps 761 mmHg 77%
06:00 +13°C° 0 mm 2 mps 761 mmHg 75%
07:00 +15°C° 0 mm 2 mps 761 mmHg 72%
08:00 +16°C° 0 mm 2 mps 761 mmHg 68%
09:00 +17°C° 0 mm 3 mps 761 mmHg 65%
10:00 +17°C° 0 mm 3 mps 761 mmHg 66%
11:00 +17°C° 0 mm 2 mps 761 mmHg 67%
12:00 +17°C° 0 mm 2 mps 761 mmHg 69%
13:00 +17°C° 0 mm 3 mps 760 mmHg 70%
14:00 +17°C° 0 mm 4 mps 760 mmHg 71%
15:00 +17°C° 0 mm 4 mps 760 mmHg 72%
16:00 +17°C° 0 mm 4 mps 759 mmHg 73%
17:00 +17°C° 0 mm 4 mps 759 mmHg 75%
18:00 +17°C° 0 mm 4 mps 759 mmHg 76%
19:00 +15°C° 0.1 mm 4 mps 759 mmHg 82%
20:00 +14°C° 0.1 mm 4 mps 759 mmHg 88%
21:00 +13°C° 0.1 mm 3 mps 759 mmHg 93%
22:00 +12°C° 0 mm 3 mps 759 mmHg 94%
23:00 +12°C° 0 mm 3 mps 758 mmHg 95%
Show more